Reflectivity
-20 -20 -20 -20 -20 -20 -20 -20 -20 -20 -20 -20 -4 5 -11 -15 -4 -20 -20 27 -20 -20 -20 -20 -20 -20 -20 -20 -20 -20 -20 -20 -20 -20 -20 -20 -20 -20 -20 -20 -20 -20 -20
-20 -20 -20 -20 -20 -20 -20 -20 -20 -20 -20 -20 -20 -20 -20 -20 -20 16 -16 -20 -20 -20 -20 -20 0 -20 -20 -20 -20 -20 -20 -20 -20 -20 -20 -20 -20 -20 -20 -20 -20 -20 -20
-20 -20 -20 -20 -20 -20 -20 -20 -20 -20 -20 -20 -20 -20 -20 -20 -11 -17 -1 -20 -20 -3 -16 27 26 -15 -20 -20 -20 -20 -20 -20 -20 -20 -20 -20 -20 -20 -20 -20 -20 -20 -20
-20 -20 -20 -20 -20 -20 -20 -20 -20 -20 -20 -20 -20 -20 -20 -20 -20 -20 -20 -20 -20 6 -18 23 20 -11 16 -20 -20 -20 -20 -20 -20 -20 -20 -20 -20 -20 -20 -20 -20 -20 -20
-20 -20 -20 -20 -20 -20 -20 -20 -20 -20 -20 -20 -20 -20 -20 -20 -20 -20 -20 -20 16 19 22 -16 -16 -20 -20 -20 -17 -20 -20 -20 -20 -20 -20 -20 -20 -20 -20 -20 -20 -20 -20
-20 -20 -20 -20 -20 -20 -20 -20 -20 -20 -20 -20 -20 -20 -20 -20 -20 -20 -20 -20 -20 8 19 8 9 -20 22 -20 22 17 -9 -7 -20 -20 6 -17 -20 -20 -20 -20 -20 -20 -20
-20 -20 -20 -20 -20 -20 -20 -20 -20 -20 -20 -20 -20 -20 -20 -8 -20 -20 -20 -20 -20 -20 -20 13 -4 -7 -3 22 24 20 17 15 17 17 11 -17 -10 -20 -17 -18 -20 -20 -19
-20 -20 -20 -20 -20 -20 -20 -20 -20 -20 -20 -20 -20 -20 -20 -20 -20 -6 -20 -20 -20 -20 17 13 16 24 23 22 21 22 21 17 17 11 12 -7 -13 30 -6 11 7 -10 -1
-20 -20 -20 -20 -20 -20 -20 -20 -20 -20 -20 -20 -20 -20 -20 -20 -20 -20 5 -20 -20 -20 -20 6 13 19 22 26 24 21 21 3 -20 -18 -20 -20 -9 -20 8 10 28 7 -6
-20 -20 -20 -20 -20 -20 -20 -20 -20 -20 -20 -20 -20 -20 -20 -20 -20 -20 -20 -20 -20 -20 -20 -20 -10 13 20 20 25 20 8 4 8 7 -20 -8 -9 -20 23 8 -2 2 13
-20 -20 -20 -20 -20 -20 -20 -20 -20 -20 -20 -20 -20 -20 -20 -20 -20 -20 -20 -20 -20 -20 -20 -20 -20 -20 15 18 19 26 39 4 -8 -20 -20 17 14 16 18 4 26 26 33
-20 -20 -20 -20 -20 -20 -20 -20 -20 -20 -20 -20 -20 -20 -20 -20 -20 -20 -20 -20 -20 -20 -20 -20 -20 -20 -20 18 17 23 19 25 -11 -20 13 22 25 30 30 20 11 25 24
-20 -20 -20 -20 -20 -20 -20 -20 -20 -20 -20 -20 -20 -20 -20 -20 -20 -20 -20 -20 -20 -20 -20 -9 -14 -20 -20 3 1 4 17 23 -1 4 22 40 17 19 17 17 2 26 28
-20 -20 -20 -20 -20 -20 -20 -20 -20 -20 -20 -20 -20 -20 -20 -1 -17 -20 -20 -20 -20 -20 -20 -19 -19 -20 -20 -20 -20 9 0 0 -2 15 4 11 24 22 32 26 19 25 24
-20 -20 -20 -20 -20 -20 -20 -20 -20 -20 -20 -20 -20 -20 11 3 -17 -20 -20 -20 -1 -1 17 11 -8 -20 -19 12 -11 -7 -20 18 23 36 27 31 40 31 31 12 7 17 19
-20 -20 -20 -20 -20 -20 -20 -20 -20 -20 -20 -20 -9 16 -2 -20 -20 -4 7 -20 12 21 12 13 9 13 8 18 21 30 25 27 34 35 27 15 27 15 16 23 25 28 15
-20 -20 -20 -20 -20 -20 -3 -20 -20 -20 -20 -20 -2 -4 -20 -20 -2 -2 12 12 12 -10 16 -13 2 14 7 15 33 26 -0 -1 22 15 5 -6 -1 8 9 11 -6 -9 6
-20 -20 -20 -20 -9 -6 10 -4 -20 -20 -20 -20 -17 -20 -20 -20 -1 2 -11 -11 -7 4 7 8 23 26 32 27 19 9 -6 3 2 8 18 16 6 1 2 10 14 10 -0
-20 -20 -20 -20 -20 -20 -1 -4 -20 -20 -9 -4 -6 -12 -16 -14 -9 -11 -7 21 6 14 16 35 31 35 33 33 28 18 20 12 14 14 6 10 -5 0 -13 -16 -20 -20 -20
-20 -20 -20 -20 -20 -20 -12 -20 -20 -20 -7 -16 -4 1 5 7 11 9 14 14 7 30 39 36 31 38 30 16 14 11 0 4 9 6 6 -4 -20 -20 -20 -1 -20 -20 -20
-20 -20 -20 -20 -20 -20 -11 -20 -20 -10 -7 -17 -13 -9 14 22 31 34 36 26 25 23 19 19 21 11 7 11 13 8 9 7 2 -17 -20 -20 -20 -2 -6 -7 -20 -20 -20
-20 -20 -20 -20 -20 -20 -20 -20 -20 -20 -20 -18 -4 1 2 23 21 13 9 10 4 -9 1 -2 -1 -7 -15 -15 -20 -19 -17 -20 -20 -20 -20 -20 -7 -14 -20 -20 -20 -20 -20
-20 -20 -19 -20 -20 -20 -20 -20 -20 -20 -20 -20 -20 -20 -20 -20 -20 -20 -20 -20 -20 -20 -20 -20 -20 -20 -20 -20 -20 -20 -20 -20 -20 -20 -20 -20 -20 -20 -20 -20 -20 -20 -20
-20 -20 -20 -20 -20 -20 -20 -20 -20 -20 -20 -20 -20 -20 -20 -20 -20 -20 -20 -20 -20 -20 -20 -20 -20 -20 -20 -20 -20 -20 -20 -20 -20 -20 -20 -20 -20 -20 -20 -20 -20 -20 -20
-20 -20 -20 -20 -20 -20 -20 -20 -20 -20 -20 -20 -20 -20 -20 -20 -20 -20 -20 -20 -20 -20 -20 -20 -20 -20 -20 -20 -20 -20 -20 -20 -20 -20 -20 -20 -20 -20 -20 -20 -20 -20 -20
-16 -20 -20 -20 -20 -20 -20 -20 -20 -20 -20 -20 -20 -20 -20 -20 -20 -20 -20 -20 -20 -20 -20 -20 -20 -20 -20 -20 -20 -20 -20 -20 -20 -20 -20 -20 -20 -20 -20 -20 -20 -20 -20
Wind_Speed
6 7 8 9 8 9 8 10 9 12 9 9 9 9 9 11 9 10 15 15 14 15 14 10 10 11 11 11 11 6 6 3 6 6 3 2 2 4 4 4 5 5 4
6 6 8 8 9 10 8 8 11 12 11 9 9 9 10 9 10 8 12 14 16 16 14 13 12 13 10 11 11 7 5 3 8 4 3 4 3 4 4 4 5 7 5
7 8 8 6 7 8 8 9 10 11 11 13 8 4 1 2 5 7 10 13 16 16 16 15 12 13 11 11 12 10 9 6 7 5 3 4 5 3 3 6 6 7 5
6 5 8 9 8 6 6 7 8 10 9 12 11 13 11 11 11 12 11 10 15 16 16 15 15 14 11 13 14 12 9 7 8 3 4 1 2 4 4 3 5 6 7
4 6 7 6 7 7 6 6 6 7 9 10 13 12 14 11 9 8 11 11 11 14 15 16 17 15 11 13 13 13 12 7 6 6 5 3 1 1 2 4 5 5 6
6 4 4 4 8 7 7 6 6 5 6 6 11 14 15 14 9 9 9 9 8 10 13 14 14 14 12 12 11 11 13 11 4 4 5 5 5 5 4 2 3 5 6
7 8 10 10 10 10 10 8 6 5 4 5 7 13 16 14 11 11 9 8 7 9 14 16 15 14 14 12 11 11 10 9 7 8 4 3 2 2 2 2 3 1 2
7 7 8 8 8 8 9 8 9 8 6 4 6 7 11 8 9 8 8 8 9 10 12 13 13 14 14 13 12 9 7 8 6 8 5 4 5 4 3 3 4 1 2
8 8 9 8 10 11 12 10 10 8 7 7 5 5 6 8 6 7 6 7 8 7 10 13 13 13 13 13 12 9 10 9 7 7 8 6 4 3 5 4 2 3 4
10 11 11 12 11 10 10 10 7 8 7 7 6 6 5 6 8 7 8 10 8 9 9 11 12 12 12 10 11 9 10 11 6 6 8 6 1 6 2 5 1 2 1
10 11 12 11 11 10 10 11 10 10 9 9 10 9 8 8 7 8 9 8 7 8 9 11 11 12 12 12 10 10 10 12 9 7 8 6 5 3 4 2 3 2 0
9 11 12 10 10 11 12 11 12 11 9 8 8 9 10 9 8 7 7 6 7 8 9 10 10 11 11 10 11 11 10 12 11 9 8 7 6 1 6 0 4 2 3
9 11 12 11 10 10 11 12 11 12 12 11 10 8 6 6 7 4 4 5 6 8 8 10 10 10 10 9 8 10 11 9 10 9 7 6 4 4 2 3 2 3 2
7 6 8 10 11 11 11 10 12 12 13 11 9 8 7 5 5 1 4 5 7 8 8 9 10 11 12 13 14 14 13 11 9 8 8 8 6 4 4 2 2 4 6
8 9 10 10 10 11 11 10 10 10 11 10 10 6 5 7 8 7 8 10 10 10 10 12 12 13 13 9 14 14 14 12 11 9 5 7 6 5 5 3 5 6 4
7 8 9 10 9 9 10 9 9 9 9 9 9 10 8 10 10 10 10 11 11 10 11 11 11 11 9 23 20 14 11 10 9 8 4 3 4 4 4 3 4 4 6
8 9 10 9 8 9 9 9 9 9 9 7 8 8 9 10 9 9 11 11 11 11 11 11 11 12 11 22 22 18 9 8 7 6 4 4 3 3 1 1 4 5 9
6 7 7 7 8 8 8 7 7 9 8 9 9 9 9 10 9 9 10 10 10 11 10 11 12 11 12 18 19 18 9 7 6 6 5 4 2 2 2 3 4 4 6
3 4 5 7 6 7 7 7 7 7 8 9 10 10 10 10 10 10 10 9 11 11 11 10 9 10 11 17 16 11 7 9 7 6 3 2 2 4 5 3 2 4 6
2 4 6 6 6 9 7 7 7 7 8 8 9 9 9 9 10 10 9 9 11 10 9 11 8 11 9 13 11 6 6 7 5 3 2 3 3 5 6 3 1 5 7
4 4 6 7 6 6 6 7 6 7 6 7 8 9 9 9 8 8 8 9 9 10 10 9 7 7 4 3 9 8 5 4 3 1 0 2 4 6 7 8 3 7 10
4 5 5 6 6 6 6 7 7 6 7 8 9 9 8 7 7 10 8 8 8 9 9 9 6 4 5 9 9 8 8 6 2 1 1 3 5 6 8 7 10 11 8
4 3 6 7 5 6 5 7 4 5 7 9 9 9 9 8 7 8 7 7 7 6 5 5 4 3 3 4 7 6 6 5 3 2 3 5 7 7 6 8 9 7 4
4 4 6 7 5 5 6 5 4 6 8 10 9 7 8 8 7 6 5 5 4 4 4 4 4 3 2 2 2 3 3 5 3 3 4 6 5 6 5 4 4 3 4
4 5 5 5 5 5 5 5 5 7 9 8 7 7 6 7 6 5 4 4 2 3 4 3 3 3 2 1 1 2 2 2 3 3 1 2 3 4 4 4 4 4 4
7 6 6 6 6 5 5 5 5 6 7 7 5 5 5 4 4 4 4 10 9 8 8 5 2 0 1 2 2 4 4 4 4 1 1 2 3 4 4 4 5 4 6
Wind_Direction
285 250 262 255 251 253 240 236 239 229 215 212 204 211 212 214 212 211 210 202 198 195 195 197 191 180 183 183 178 149 158 144 154 130 114 105 140 177 181 173 169 166 157
304 298 286 288 276 270 245 238 229 231 216 211 211 211 215 223 220 217 212 205 201 194 192 189 190 183 178 180 178 163 149 133 186 149 136 174 184 205 196 187 186 177 166
336 346 344 322 309 283 274 258 242 235 225 215 209 188 56 215 207 209 213 209 200 196 194 190 188 183 180 184 184 179 171 156 193 216 162 152 220 156 174 203 199 186 185
14 355 3 357 345 319 290 272 265 243 234 217 208 205 212 223 225 223 218 209 203 197 195 189 187 192 189 189 189 183 184 148 168 193 218 238 134 179 181 208 208 205 200
14 5 353 342 333 341 341 331 296 269 249 224 213 213 218 226 222 215 215 211 207 207 198 191 183 191 195 196 198 183 184 187 161 167 156 173 175 202 173 169 182 211 214
342 337 303 308 343 341 352 345 351 312 280 242 245 227 223 226 218 213 211 206 196 199 204 195 192 191 198 195 195 199 196 182 155 159 172 160 167 181 169 164 166 196 189
350 353 352 350 346 342 337 333 333 319 328 275 247 245 239 239 235 228 219 207 203 196 198 194 193 193 194 192 188 187 188 181 179 175 169 139 122 105 118 108 109 142 137
343 337 332 328 327 322 320 320 317 304 316 306 286 257 246 245 258 241 220 210 207 212 215 202 198 196 195 189 183 181 179 170 168 166 163 167 138 132 158 143 141 128 204
344 336 332 329 330 326 319 319 315 288 288 296 297 285 263 238 237 234 230 237 223 214 197 197 200 197 190 185 177 176 172 161 151 160 163 152 141 128 129 113 195 151 184
349 341 340 340 337 330 323 325 328 302 291 298 297 297 291 260 247 249 236 230 219 198 184 188 192 188 188 178 175 170 161 148 142 131 126 120 130 120 69 122 90 84 110
342 339 336 331 328 332 348 343 357 346 336 331 317 307 297 288 266 244 244 229 203 186 181 184 179 180 179 174 163 155 150 138 134 124 124 103 94 101 80 51 96 81 253
342 344 336 337 353 0 358 358 352 348 338 323 314 306 300 285 262 249 247 212 189 171 169 164 165 167 167 166 162 156 146 136 123 113 103 104 116 120 112 236 119 159 194
346 348 354 3 358 359 358 358 355 347 337 329 326 324 324 325 306 273 204 191 174 160 148 155 153 149 142 133 124 113 102 96 99 105 115 121 132 132 132 86 40 61 302
329 322 350 358 359 356 355 2 359 348 337 337 338 335 341 355 330 236 158 147 148 134 132 126 120 118 114 115 111 107 100 91 84 81 88 89 71 56 101 143 195 215 223
355 355 354 359 358 353 349 1 1 349 343 2 7 6 52 62 68 72 80 83 83 89 98 105 107 112 113 115 112 110 110 107 110 97 94 96 119 170 181 188 201 218 240
348 354 359 6 0 348 340 359 357 4 12 20 27 12 44 68 71 80 84 88 93 96 99 99 104 102 105 114 113 110 108 108 112 110 122 133 162 200 201 237 278 226 232
360 3 2 4 353 352 350 4 8 15 18 26 42 45 47 60 62 72 80 86 93 93 91 95 94 93 101 112 113 112 109 113 113 132 145 150 111 118 153 229 287 294 286
9 11 2 9 6 4 8 13 19 32 27 32 36 45 57 62 66 77 84 88 87 90 95 92 95 96 102 108 109 101 90 93 102 103 113 101 194 249 300 264 268 286 287
12 45 24 39 9 22 18 28 35 34 36 38 42 47 51 64 66 65 72 80 85 79 77 78 82 90 87 100 106 114 105 101 127 135 120 138 274 297 298 291 314 312 289
86 77 66 57 31 34 42 51 42 39 43 45 51 53 58 60 69 70 66 73 75 77 80 77 68 84 89 109 105 118 118 108 102 114 149 298 306 319 310 352 179 270 285
122 94 84 75 58 48 45 54 46 48 49 53 53 58 58 63 62 72 68 73 77 78 68 68 65 71 95 170 134 111 91 116 124 115 333 293 311 318 341 332 318 299 304
130 120 104 87 82 75 74 62 58 70 73 71 69 66 60 61 62 72 67 79 90 97 101 106 102 74 36 67 83 88 108 121 150 112 338 319 331 354 336 329 310 316 337
147 134 119 106 91 107 107 94 78 89 86 79 73 73 72 69 71 86 89 87 86 93 99 98 94 81 54 41 76 81 73 32 47 17 9 31 7 353 346 327 328 326 305
160 145 135 118 112 102 106 106 104 93 91 88 82 80 83 77 66 73 78 92 96 102 103 103 104 103 96 84 58 45 17 10 17 46 32 12 1 347 331 325 320 304 294
164 151 147 141 135 130 119 115 111 107 98 91 90 88 86 89 89 81 94 91 87 106 109 104 102 81 66 356 87 22 17 42 349 129 61 343 342 336 336 329 312 300 295
164 155 154 148 155 144 124 117 119 118 116 110 107 104 100 94 94 99 75 76 82 83 90 111 118 49 242 31 21 19 9 358 22 88 354 331 332 318 317 317 315 307 311